Location: Oberkirch
(48.5323°N, 8.0787°E)
Time: 16:27:18
(UTC+00:00)

SL-24 R/B - RUBIN 2 - Pass Details

Date: 12 February 2026
Orbit: 603 x 984 km, 64.6° (Epoch: 8 March)

Event Time Altitude Azimuth Distance (km) Brightness Sun altitude
Exits shadow 05:59:47 - 306° (NW) 2,326 5.9 -7.3°
Reaches altitude 10° 06:01:11 10° 321° (NW) 2,036 5.7 -7.1°
Maximum altitude 06:03:02 12° 345° (NNW) 1,868 5.8 -6.8°
Drops below altitude 10° 06:04:50 10° 9° (N) 1,990 6.1 -6.5°
Sets 06:08:29 0° 41° (NE) 2,868 7.4 -5.9°
